| time (UTC) | temp F | wind direction | speed MPH | gust MPH | rain 1hr in | rain 24hr in | rain mn in | humidity % | barometer mb |
| 20260507145504 | 62 | 64 | 4.0 | 6.0 | 0.00 | 0.00 | 0.00 | 50 | 1015.2 |
| 20260507145002 | 62 | 344 | 3.0 | 5.0 | 0.00 | 0.00 | 0.00 | 50 | 1015.1 |
| 20260507144459 | 62 | 16 | 3.0 | 7.0 | 0.00 | 0.00 | 0.00 | 52 | 1015.1 |
| 20260507143955 | 61 | 79 | 4.0 | 4.0 | 0.00 | 0.00 | 0.00 | 53 | 1015.2 |
| 20260507143453 | 60 | 345 | 2.0 | 4.0 | 0.00 | 0.00 | 0.00 | 55 | 1015.4 |
| 20260507142950 | 60 | 252 | 3.0 | 6.0 | 0.00 | 0.00 | 0.00 | 54 | 1015.2 |
| 20260507142445 | 60 | 279 | 2.0 | 5.0 | 0.00 | 0.00 | 0.00 | 56 | 1015.4 |
| 20260507141943 | 60 | 87 | 5.0 | 5.0 | 0.00 | 0.00 | 0.00 | 55 | 1015.1 |
| 20260507141438 | 60 | 7 | 2.0 | 4.0 | 0.00 | 0.00 | 0.00 | 54 | 1015.1 |
| 20260507140936 | 60 | 313 | 3.0 | 6.0 | 0.00 | 0.00 | 0.00 | 58 | 1015.1 |
| 20260507140432 | 60 | 73 | 4.0 | 8.0 | 0.00 | 0.00 | 0.00 | 54 | 1014.9 |
| 20260507135930 | 60 | 42 | 4.0 | 6.0 | 0.00 | 0.00 | 0.00 | 57 | 1014.9 |
| 20260507135426 | 60 | 49 | 2.0 | 4.0 | 0.00 | 0.00 | 0.00 | 56 | 1014.7 |
| 20260507134924 | 58 | 41 | 4.0 | 5.0 | 0.00 | 0.00 | 0.00 | 60 | 1014.7 |
| 20260507134420 | 58 | 41 | 4.0 | 5.0 | 0.00 | 0.00 | 0.00 | 60 | 1014.7 |
| 20260507133916 | 58 | 84 | 4.0 | 6.0 | 0.00 | 0.00 | 0.00 | 59 | 1014.9 |
| 20260507133412 | 59 | 2 | 4.0 | 4.0 | 0.00 | 0.00 | 0.00 | 57 | 1014.8 |
| 20260507132911 | 58 | 96 | 3.0 | 5.0 | 0.00 | 0.00 | 0.00 | 62 | 1014.8 |
| 20260507132407 | 57 | 23 | 1.0 | 3.0 | 0.00 | 0.00 | 0.00 | 65 | 1014.8 |
| 20260507131905 | 56 | 13 | 1.0 | 2.0 | 0.00 | 0.00 | 0.00 | 66 | 1014.6 |
| 20260507131401 | 56 | 342 | 4.0 | 5.0 | 0.00 | 0.00 | 0.00 | 62 | 1014.9 |
| 20260507130858 | 57 | 0 | 3.0 | 5.0 | 0.00 | 0.00 | 0.00 | 62 | 1014.8 |
| 20260507130354 | 58 | 14 | 2.0 | 4.0 | 0.00 | 0.00 | 0.00 | 63 | 1014.9 |
| 20260507125854 | 57 | 63 | 3.0 | 3.0 | 0.00 | 0.00 | 0.00 | 64 | 1014.8 |
| 20260507125350 | 57 | 57 | 2.0 | 4.0 | 0.00 | 0.00 | 0.00 | 63 | 1014.8 |
| 20260507124848 | 58 | 40 | 4.0 | 4.0 | 0.00 | 0.00 | 0.00 | 63 | 1014.7 |
| 20260507124343 | 56 | 49 | 1.0 | 2.0 | 0.00 | 0.00 | 0.00 | 69 | 1014.6 |
| 20260507123843 | 56 | 85 | 4.0 | 4.0 | 0.00 | 0.00 | 0.00 | 66 | 1014.7 |
| 20260507123339 | 55 | 101 | 3.0 | 6.0 | 0.00 | 0.00 | 0.00 | 69 | 1014.7 |
| 20260507122836 | 54 | 354 | 2.0 | 3.0 | 0.00 | 0.00 | 0.00 | 70 | 1014.7 |
| 20260507122331 | 54 | 9 | 3.0 | 3.0 | 0.00 | 0.00 | 0.00 | 71 | 1014.6 |
| 20260507121828 | 54 | 39 | 2.0 | 3.0 | 0.00 | 0.00 | 0.00 | 71 | 1014.7 |
| 20260507121323 | 53 | 49 | 2.0 | 3.0 | 0.00 | 0.00 | 0.00 | 74 | 1014.7 |
| 20260507120820 | 53 | 15 | 0.0 | 4.0 | 0.00 | 0.00 | 0.00 | 73 | 1014.5 |
| 20260507120316 | 53 | 50 | 2.0 | 4.0 | 0.00 | 0.00 | 0.00 | 74 | 1014.3 |
| 20260507115813 | 53 | 24 | 2.0 | 3.0 | 0.00 | 0.00 | 0.00 | 73 | 1014.2 |
| 20260507115308 | 53 | 92 | 3.0 | 3.0 | 0.00 | 0.00 | 0.00 | 74 | 1014.5 |
| 20260507114804 | 53 | 358 | 3.0 | 4.0 | 0.00 | 0.00 | 0.00 | 74 | 1014.5 |
| 20260507114302 | 53 | 339 | 2.0 | 3.0 | 0.00 | 0.00 | 0.00 | 74 | 1014.4 |
| 20260507113759 | 52 | 42 | 3.0 | 4.0 | 0.00 | 0.00 | 0.00 | 76 | 1014.5 |
| 20260507113256 | 52 | 24 | 2.0 | 3.0 | 0.00 | 0.00 | 0.00 | 78 | 1014.4 |
| 20260507112754 | 51 | 47 | 2.0 | 3.0 | 0.00 | 0.00 | 0.00 | 79 | 1014.1 |
| 20260507112250 | 51 | 53 | 2.0 | 2.0 | 0.00 | 0.00 | 0.00 | 80 | 1014.0 |
| 20260507111748 | 50 | 40 | 2.0 | 3.0 | 0.00 | 0.00 | 0.00 | 81 | 1013.9 |
| 20260507111244 | 50 | 45 | 3.0 | 3.0 | 0.00 | 0.00 | 0.00 | 82 | 1013.9 |
| 20260507110741 | 50 | 1 | 2.0 | 3.0 | 0.00 | 0.00 | 0.00 | 82 | 1013.6 |
| 20260507110237 | 50 | 62 | 3.0 | 3.0 | 0.00 | 0.00 | 0.00 | 82 | 1013.6 |
| 20260507105734 | 50 | 53 | 1.0 | 3.0 | 0.00 | 0.00 | 0.00 | 82 | 1013.5 |
| 20260507105230 | 50 | 14 | 2.0 | 3.0 | 0.00 | 0.00 | 0.00 | 82 | 1013.4 |
| 20260507104728 | 50 | 32 | 3.0 | 3.0 | 0.00 | 0.00 | 0.00 | 82 | 1013.4 |
| 20260507104224 | 50 | 51 | 2.0 | 3.0 | 0.00 | 0.00 | 0.00 | 82 | 1013.4 |
| 20260507103720 | 50 | 27 | 2.0 | 2.0 | 0.00 | 0.00 | 0.00 | 82 | 1013.5 |
| 20260507103217 | 51 | 37 | 3.0 | 3.0 | 0.00 | 0.00 | 0.00 | 82 | 1013.4 |
| 20260507102713 | 51 | 43 | 3.0 | 3.0 | 0.00 | 0.00 | 0.00 | 82 | 1013.4 |
| 20260507102210 | 51 | 53 | 2.0 | 3.0 | 0.00 | 0.00 | 0.00 | 81 | 1013.3 |
| 20260507101706 | 51 | 20 | 2.0 | 3.0 | 0.00 | 0.00 | 0.00 | 81 | 1013.4 |
| 20260507101201 | 51 | 350 | 3.0 | 4.0 | 0.00 | 0.00 | 0.00 | 80 | 1013.3 |
| 20260507100658 | 51 | 40 | 3.0 | 3.0 | 0.00 | 0.00 | 0.00 | 80 | 1013.3 |
| 20260507100157 | 52 | 34 | 2.0 | 4.0 | 0.00 | 0.00 | 0.00 | 80 | 1013.4 |
| 20260507095655 | 52 | 17 | 2.0 | 4.0 | 0.00 | 0.00 | 0.00 | 80 | 1013.2 |
| 20260507095151 | 52 | 18 | 2.0 | 3.0 | 0.00 | 0.00 | 0.00 | 81 | 1013.3 |
| 20260507094647 | 52 | 356 | 3.0 | 3.0 | 0.00 | 0.00 | 0.00 | 81 | 1013.2 |
| 20260507094144 | 52 | 21 | 3.0 | 4.0 | 0.00 | 0.00 | 0.00 | 81 | 1012.8 |
| 20260507093642 | 52 | 54 | 2.0 | 2.0 | 0.00 | 0.00 | 0.00 | 82 | 1013.2 |
| 20260507093141 | 52 | 55 | 3.0 | 4.0 | 0.00 | 0.00 | 0.00 | 81 | 1013.2 |
| 20260507092637 | 52 | 66 | 0.0 | 4.0 | 0.00 | 0.00 | 0.00 | 82 | 1013.2 |
| 20260507092133 | 52 | 46 | 2.0 | 3.0 | 0.00 | 0.00 | 0.00 | 83 | 1013.1 |
| 20260507091630 | 52 | 347 | 2.0 | 3.0 | 0.00 | 0.00 | 0.00 | 84 | 1013.4 |
| 20260507091126 | 52 | 50 | 2.0 | 4.0 | 0.00 | 0.00 | 0.00 | 85 | 1013.2 |
| 20260507090622 | 52 | 51 | 2.0 | 2.0 | 0.00 | 0.00 | 0.00 | 86 | 1013.1 |
| 20260507090119 | 52 | 44 | 2.0 | 3.0 | 0.00 | 0.00 | 0.00 | 85 | 1013.1 |
| 20260507085616 | 52 | 55 | 0.0 | 3.0 | 0.00 | 0.00 | 0.00 | 86 | 1013.1 |
| 20260507085112 | 52 | 52 | 2.0 | 3.0 | 0.00 | 0.00 | 0.00 | 86 | 1012.9 |
| 20260507084610 | 52 | 77 | 1.0 | 2.0 | 0.00 | 0.00 | 0.00 | 86 | 1013.1 |
| 20260507084106 | 52 | 62 | 2.0 | 3.0 | 0.00 | 0.00 | 0.00 | 86 | 1013.0 |
| 20260507083602 | 52 | 50 | 2.0 | 2.0 | 0.00 | 0.00 | 0.00 | 85 | 1013.3 |
| 20260507083100 | 52 | 30 | 2.0 | 3.0 | 0.00 | 0.00 | 0.00 | 85 | 1013.3 |
| 20260507082555 | 52 | 47 | 1.0 | 4.0 | 0.00 | 0.00 | 0.00 | 85 | 1013.3 |
| 20260507082052 | 52 | 36 | 2.0 | 3.0 | 0.00 | 0.00 | 0.00 | 86 | 1013.2 |
| 20260507081548 | 52 | 51 | 0.0 | 3.0 | 0.00 | 0.00 | 0.00 | 86 | 1012.9 |
| 20260507081046 | 52 | 53 | 2.0 | 3.0 | 0.00 | 0.00 | 0.00 | 87 | 1013.2 |
| 20260507080541 | 52 | 34 | 2.0 | 2.0 | 0.00 | 0.00 | 0.00 | 89 | 1013.0 |
| 20260507080038 | 52 | 39 | 2.0 | 2.0 | 0.00 | 0.00 | 0.00 | 89 | 1013.1 |
| 20260507075533 | 52 | 70 | 2.0 | 2.0 | 0.00 | 0.00 | 0.00 | 90 | 1012.9 |
| 20260507075030 | 52 | 93 | 2.0 | 2.0 | 0.00 | 0.00 | 0.00 | 91 | 1013.1 |
| 20260507074527 | 52 | 61 | 2.0 | 2.0 | 0.00 | 0.00 | 0.00 | 91 | 1013.3 |
| 20260507074026 | 52 | 53 | 2.0 | 2.0 | 0.00 | 0.00 | 0.00 | 92 | 1013.2 |
| 20260507073521 | 52 | 88 | 1.0 | 2.0 | 0.00 | 0.00 | 0.00 | 93 | 1013.3 |
| 20260507073018 | 52 | 84 | 1.0 | 2.0 | 0.00 | 0.00 | 0.00 | 93 | 1013.4 |
| 20260507072515 | 52 | 93 | 1.0 | 2.0 | 0.00 | 0.00 | 0.00 | 92 | 1013.4 |
| 20260507072012 | 52 | 91 | 2.0 | 2.0 | 0.00 | 0.00 | 0.00 | 92 | 1013.3 |
| 20260507071509 | 52 | 77 | 1.0 | 2.0 | 0.00 | 0.00 | 0.00 | 91 | 1013.2 |
| 20260507071006 | 52 | 81 | 1.0 | 2.0 | 0.00 | 0.00 | 0.00 | 91 | 1013.4 |
| 20260507070503 | 52 | 92 | 2.0 | 2.0 | 0.00 | 0.00 | 0.00 | 90 | 1013.6 |
| 20260507070000 | 52 | 45 | 2.0 | 2.0 | 0.00 | 0.00 | 0.00 | 91 | 1013.6 |
| 20260507065456 | 52 | 61 | 2.0 | 2.0 | 0.00 | 0.00 | 0.00 | 91 | 1013.3 |
| 20260507064954 | 52 | 61 | 2.0 | 2.0 | 0.00 | 0.00 | 0.00 | 91 | 1013.7 |
| 20260507064452 | 53 | 66 | 2.0 | 2.0 | 0.00 | 0.00 | 0.00 | 91 | 1013.7 |
| 20260507063949 | 52 | 56 | 2.0 | 2.0 | 0.00 | 0.00 | 0.00 | 90 | 1013.4 |
| 20260507063446 | 53 | 55 | 2.0 | 2.0 | 0.00 | 0.00 | 0.00 | 91 | 1013.4 |
| 20260507062943 | 53 | 72 | 2.0 | 2.0 | 0.00 | 0.00 | 0.00 | 91 | 1013.3 |
| 20260507062441 | 53 | 57 | 2.0 | 2.0 | 0.00 | 0.00 | 0.00 | 90 | 1013.2 |
| 20260507061938 | 53 | 73 | 2.0 | 2.0 | 0.00 | 0.00 | 0.00 | 90 | 1013.4 |
| 20260507061436 | 53 | 29 | 1.0 | 2.0 | 0.00 | 0.00 | 0.00 | 91 | 1013.4 |
| 20260507060934 | 53 | 47 | 2.0 | 2.0 | 0.00 | 0.00 | 0.00 | 92 | 1013.2 |
| 20260507060430 | 53 | 42 | 1.0 | 2.0 | 0.00 | 0.00 | 0.00 | 93 | 1013.6 |
| 20260507055927 | 53 | 57 | 2.0 | 2.0 | 0.00 | 0.00 | 0.00 | 94 | 1013.0 |
| 20260507055423 | 53 | 48 | 2.0 | 2.0 | 0.00 | 0.00 | 0.00 | 94 | 1013.0 |
| 20260507054920 | 53 | 53 | 2.0 | 2.0 | 0.00 | 0.00 | 0.00 | 94 | 1013.3 |
| 20260507054415 | 53 | 65 | 2.0 | 2.0 | 0.00 | 0.00 | 0.00 | 94 | 1013.4 |
| 20260507053913 | 53 | 56 | 2.0 | 2.0 | 0.00 | 0.00 | 0.00 | 95 | 1013.4 |
| 20260507053410 | 53 | 20 | 2.0 | 2.0 | 0.00 | 0.00 | 0.00 | 96 | 1013.3 |
| 20260507052909 | 53 | 37 | 2.0 | 2.0 | 0.00 | 0.00 | 0.00 | 96 | 1013.4 |
| 20260507052406 | 53 | 63 | 2.0 | 2.0 | 0.00 | 0.00 | 0.00 | 96 | 1013.4 |
| 20260507051903 | 53 | 64 | 2.0 | 3.0 | 0.00 | 0.00 | 0.00 | 96 | 1013.8 |
| 20260507051401 | 53 | 83 | 2.0 | 2.0 | 0.00 | 0.00 | 0.00 | 96 | 1014.4 |
| 20260507050857 | 53 | 80 | 0.0 | 2.0 | 0.00 | 0.00 | 0.00 | 96 | 1014.4 |
| 20260507050354 | 53 | 54 | 2.0 | 2.0 | 0.00 | 0.00 | 0.00 | 96 | 1014.1 |
| 20260507045851 | 53 | 64 | 2.0 | 2.0 | 0.00 | 0.80 | 0.80 | 96 | 1014.2 |
| 20260507045347 | 53 | 85 | 2.0 | 2.0 | 0.00 | 0.80 | 0.80 | 96 | 1014.1 |
| 20260507044844 | 53 | 60 | 2.0 | 2.0 | 0.00 | 0.80 | 0.80 | 96 | 1014.0 |
| 20260507044341 | 53 | 73 | 2.0 | 2.0 | 0.00 | 0.80 | 0.80 | 96 | 1014.1 |
| 20260507043836 | 53 | 60 | 2.0 | 2.0 | 0.00 | 0.80 | 0.80 | 96 | 1014.1 |
| 20260507043334 | 53 | 81 | 0.0 | 1.0 | 0.00 | 0.80 | 0.80 | 96 | 1014.1 |
| 20260507042830 | 53 | 86 | 2.0 | 2.0 | 0.00 | 0.80 | 0.80 | 96 | 1013.8 |
| 20260507042326 | 53 | 119 | 0.0 | 2.0 | 0.00 | 0.80 | 0.80 | 96 | 1014.1 |
| 20260507041823 | 53 | 96 | 2.0 | 2.0 | 0.00 | 0.80 | 0.80 | 96 | 1013.9 |
| 20260507041319 | 54 | 68 | 1.0 | 2.0 | 0.00 | 0.80 | 0.80 | 96 | 1013.9 |
| 20260507040816 | 53 | 72 | 0.0 | 1.0 | 0.00 | 0.80 | 0.80 | 96 | 1013.7 |
| 20260507040312 | 53 | 72 | 0.0 | 1.0 | 0.00 | 0.80 | 0.80 | 96 | 1013.9 |
| 20260507035808 | 53 | 62 | 2.0 | 2.0 | 0.00 | 0.80 | 0.80 | 96 | 1013.5 |
| 20260507035306 | 53 | 76 | 2.0 | 2.0 | 0.00 | 0.80 | 0.80 | 96 | 1013.7 |
| 20260507034802 | 53 | 40 | 1.0 | 2.0 | 0.00 | 0.80 | 0.80 | 95 | 1013.5 |
| 20260507034259 | 53 | 92 | 2.0 | 2.0 | 0.02 | 0.80 | 0.80 | 95 | 1014.0 |
| 20260507033757 | 53 | 60 | 0.0 | 2.0 | 0.02 | 0.80 | 0.80 | 95 | 1014.3 |
| 20260507033254 | 53 | 89 | 0.0 | 2.0 | 0.00 | 0.80 | 0.80 | 95 | 1013.6 |
| 20260507032751 | 53 | 44 | 2.0 | 2.0 | 0.00 | 0.80 | 0.80 | 95 | 1013.5 |
| 20260507032247 | 53 | 93 | 2.0 | 2.0 | 0.00 | 0.80 | 0.80 | 95 | 1013.9 |
| 20260507031744 | 53 | 71 | 2.0 | 2.0 | 0.00 | 0.80 | 0.80 | 95 | 1013.9 |
| 20260507031241 | 53 | 80 | 1.0 | 3.0 | 0.00 | 0.80 | 0.80 | 94 | 1013.5 |
| 20260507030737 | 53 | 88 | 2.0 | 2.0 | 0.00 | 0.80 | 0.80 | 94 | 1013.7 |
| 20260507030235 | 53 | 50 | 0.0 | 2.0 | 0.00 | 0.80 | 0.80 | 94 | 1013.7 |
| 20260507025732 | 53 | 92 | 2.0 | 2.0 | 0.00 | 0.80 | 0.80 | 94 | 1013.5 |
| 20260507025229 | 53 | 72 | 0.0 | 2.0 | 0.02 | 0.80 | 0.80 | 94 | 1013.5 |
| 20260507024727 | 53 | 50 | 1.0 | 2.0 | 0.02 | 0.80 | 0.80 | 94 | 1013.4 |
| 20260507024224 | 53 | 81 | 0.0 | 3.0 | 0.00 | 0.79 | 0.79 | 94 | 1013.1 |
| 20260507023720 | 53 | 17 | 1.0 | 2.0 | 0.00 | 0.79 | 0.79 | 93 | 1013.5 |
| 20260507023217 | 53 | 21 | 2.0 | 3.0 | 0.02 | 0.79 | 0.79 | 94 | 1013.6 |
| 20260507022714 | 53 | 57 | 3.0 | 3.0 | 0.02 | 0.79 | 0.79 | 94 | 1013.3 |
| 20260507022210 | 54 | 13 | 0.0 | 2.0 | 0.00 | 0.79 | 0.79 | 94 | 1013.9 |
| 20260507021706 | 54 | 54 | 0.0 | 2.0 | 0.00 | 0.79 | 0.79 | 94 | 1013.8 |
| 20260507021201 | 54 | 52 | 2.0 | 2.0 | 0.00 | 0.79 | 0.79 | 93 | 1013.7 |
| 20260507020701 | 54 | 14 | 2.0 | 2.0 | 0.00 | 0.79 | 0.79 | 93 | 1013.6 |
| 20260507020156 | 54 | 80 | 2.0 | 2.0 | 0.00 | 0.79 | 0.79 | 93 | 1013.9 |
| 20260507015654 | 54 | 60 | 2.0 | 2.0 | 0.00 | 0.79 | 0.79 | 93 | 1013.7 |
| 20260507015151 | 54 | 54 | 0.0 | 2.0 | 0.02 | 0.79 | 0.79 | 93 | 1013.6 |
| 20260507014648 | 54 | 58 | 1.0 | 3.0 | 0.05 | 0.79 | 0.79 | 93 | 1013.5 |
| 20260507014144 | 54 | 47 | 2.0 | 2.0 | 0.05 | 0.78 | 0.78 | 93 | 1014.1 |
| 20260507013641 | 54 | 32 | 0.0 | 1.0 | 0.05 | 0.78 | 0.78 | 92 | 1014.4 |
| 20260507013138 | 55 | 9 | 2.0 | 3.0 | 0.05 | 0.78 | 0.78 | 91 | 1014.0 |
| 20260507012636 | 55 | 354 | 0.0 | 2.0 | 0.05 | 0.77 | 0.77 | 91 | 1014.6 |
| 20260507012130 | 55 | 58 | 1.0 | 2.0 | 0.02 | 0.77 | 0.77 | 91 | 1014.3 |
| 20260507011629 | 55 | 42 | 1.0 | 2.0 | 0.00 | 0.76 | 0.76 | 91 | 1014.4 |
| 20260507011125 | 55 | 355 | 0.0 | 2.0 | 0.00 | 0.76 | 0.76 | 91 | 1013.5 |
| 20260507010620 | 55 | 13 | 2.0 | 3.0 | 0.00 | 0.76 | 0.76 | 90 | 1013.0 |
| 20260507010116 | 55 | 74 | 2.0 | 2.0 | 0.00 | 0.76 | 0.76 | 90 | 1013.3 |
| 20260507005614 | 55 | 348 | 2.0 | 3.0 | 0.00 | 0.76 | 0.76 | 90 | 1013.2 |
| 20260507005109 | 55 | 23 | 2.0 | 3.0 | 0.00 | 0.76 | 0.76 | 91 | 1013.3 |
| 20260507004607 | 55 | 26 | 0.0 | 4.0 | 0.00 | 0.76 | 0.76 | 91 | 1013.1 |
| 20260507004104 | 55 | 83 | 1.0 | 2.0 | 0.00 | 0.76 | 0.76 | 91 | 1013.0 |
| 20260507003600 | 55 | 30 | 2.0 | 2.0 | 0.00 | 0.76 | 0.76 | 92 | 1012.5 |
| 20260507003055 | 55 | 17 | 2.0 | 2.0 | 0.00 | 0.76 | 0.76 | 91 | 1012.3 |
| 20260507002552 | 55 | 37 | 2.0 | 2.0 | 0.00 | 0.76 | 0.76 | 91 | 1012.2 |
| 20260507002048 | 55 | 18 | 2.0 | 2.0 | 0.00 | 0.76 | 0.76 | 91 | 1011.8 |
| 20260507001544 | 55 | 33 | 0.0 | 2.0 | 0.00 | 0.76 | 0.76 | 91 | 1011.5 |
| 20260507001042 | 56 | 64 | 3.0 | 3.0 | 0.00 | 0.76 | 0.76 | 91 | 1011.5 |
| 20260507000538 | 56 | 53 | 2.0 | 2.0 | 0.00 | 0.76 | 0.76 | 91 | 1011.8 |
| 20260507000033 | 56 | 52 | 1.0 | 2.0 | 0.02 | 0.76 | 0.76 | 91 | 1011.6 |
| 20260506235531 | 56 | 40 | 2.0 | 3.0 | 0.02 | 0.76 | 0.76 | 91 | 1011.8 |
| 20260506235027 | 56 | 51 | 2.0 | 2.0 | 0.00 | 0.76 | 0.76 | 91 | 1012.0 |
| 20260506234525 | 56 | 63 | 2.0 | 3.0 | 0.00 | 0.76 | 0.76 | 91 | 1011.9 |
| 20260506234022 | 56 | 66 | 2.0 | 3.0 | 0.02 | 0.76 | 0.76 | 91 | 1012.2 |
| 20260506233518 | 57 | 61 | 2.0 | 2.0 | 0.02 | 0.76 | 0.76 | 91 | 1012.9 |
| 20260506233015 | 57 | 20 | 0.0 | 3.0 | 0.00 | 0.76 | 0.76 | 91 | 1012.7 |
| 20260506232511 | 57 | 1 | 3.0 | 3.0 | 0.00 | 0.76 | 0.76 | 93 | 1012.9 |
| 20260506232007 | 57 | 39 | 2.0 | 2.0 | 0.05 | 0.76 | 0.76 | 93 | 1012.7 |
| 20260506231505 | 57 | 311 | 0.0 | 2.0 | 0.14 | 0.76 | 0.76 | 93 | 1012.6 |
| 20260506231002 | 58 | 65 | 1.0 | 2.0 | 0.09 | 0.74 | 0.74 | 92 | 1012.4 |
| 20260506230458 | 58 | 68 | 1.0 | 2.0 | 0.07 | 0.73 | 0.73 | 91 | 1012.6 |
| 20260506225955 | 58 | 48 | 2.0 | 3.0 | 0.05 | 0.72 | 0.72 | 90 | 1012.7 |
| 20260506225452 | 58 | 50 | 2.0 | 2.0 | 0.05 | 0.72 | 0.72 | 89 | 1013.5 |
| 20260506224949 | 58 | 49 | 2.0 | 2.0 | 0.02 | 0.72 | 0.72 | 87 | 1013.4 |
| 20260506224446 | 58 | 69 | 1.0 | 2.0 | 0.00 | 0.71 | 0.71 | 87 | 1013.1 |
| 20260506223942 | 59 | 76 | 2.0 | 2.0 | 0.00 | 0.71 | 0.71 | 87 | 1013.0 |
| 20260506223438 | 59 | 82 | 2.0 | 2.0 | 0.00 | 0.71 | 0.71 | 86 | 1013.0 |
| 20260506222936 | 59 | 44 | 2.0 | 2.0 | 0.00 | 0.71 | 0.71 | 87 | 1013.0 |
| 20260506222432 | 59 | 77 | 1.0 | 2.0 | 0.00 | 0.71 | 0.71 | 86 | 1012.9 |
| 20260506221929 | 59 | 66 | 0.0 | 2.0 | 0.00 | 0.71 | 0.71 | 86 | 1013.0 |
| 20260506221426 | 59 | 92 | 1.0 | 2.0 | 0.00 | 0.71 | 0.71 | 87 | 1012.7 |
| 20260506220924 | 59 | 53 | 2.0 | 2.0 | 0.00 | 0.71 | 0.71 | 87 | 1012.8 |
| 20260506220419 | 59 | 107 | 2.0 | 2.0 | 0.00 | 0.71 | 0.71 | 87 | 1013.0 |
| 20260506215916 | 59 | 55 | 2.0 | 2.0 | 0.00 | 0.71 | 0.71 | 87 | 1012.7 |
| 20260506215412 | 59 | 31 | 0.0 | 2.0 | 0.00 | 0.71 | 0.71 | 88 | 1012.9 |
| 20260506214908 | 58 | 5 | 0.0 | 1.0 | 0.00 | 0.71 | 0.71 | 87 | 1012.4 |
| 20260506214405 | 58 | 88 | 1.0 | 2.0 | 0.00 | 0.71 | 0.71 | 86 | 1012.5 |
| 20260506213902 | 58 | 100 | 1.0 | 2.0 | 0.00 | 0.71 | 0.71 | 86 | 1012.6 |
| 20260506213400 | 58 | 70 | 1.0 | 2.0 | 0.00 | 0.71 | 0.71 | 87 | 1012.4 |
| 20260506212857 | 58 | 106 | 2.0 | 2.0 | 0.00 | 0.71 | 0.71 | 86 | 1012.1 |
| 20260506212353 | 58 | 89 | 1.0 | 2.0 | 0.00 | 0.71 | 0.71 | 87 | 1012.0 |
| 20260506211848 | 58 | 58 | 2.0 | 3.0 | 0.00 | 0.71 | 0.71 | 86 | 1012.1 |
| 20260506211344 | 58 | 88 | 2.0 | 2.0 | 0.00 | 0.71 | 0.71 | 86 | 1012.0 |
| 20260506210842 | 58 | 50 | 2.0 | 2.0 | 0.00 | 0.71 | 0.71 | 86 | 1012.2 |
| 20260506210338 | 58 | 60 | 2.0 | 2.0 | 0.00 | 0.71 | 0.71 | 87 | 1012.0 |
| 20260506205836 | 58 | 349 | 1.0 | 1.0 | 0.00 | 0.71 | 0.71 | 88 | 1012.4 |
| 20260506205331 | 58 | 323 | 2.0 | 3.0 | 0.00 | 0.71 | 0.71 | 87 | 1012.2 |
| 20260506204828 | 58 | 48 | 0.0 | 2.0 | 0.00 | 0.71 | 0.71 | 85 | 1012.0 |
| 20260506204326 | 58 | 69 | 2.0 | 2.0 | 0.00 | 0.71 | 0.71 | 86 | 1012.3 |
| 20260506203823 | 58 | 57 | 2.0 | 2.0 | 0.00 | 0.71 | 0.71 | 86 | 1012.4 |
| 20260506203320 | 58 | 65 | 1.0 | 2.0 | 0.00 | 0.71 | 0.71 | 86 | 1012.5 |
| 20260506202817 | 58 | 290 | 0.0 | 2.0 | 0.00 | 0.71 | 0.71 | 86 | 1012.5 |
| 20260506202314 | 58 | 337 | 1.0 | 2.0 | 0.00 | 0.71 | 0.71 | 86 | 1012.2 |
| 20260506201810 | 58 | 85 | 2.0 | 2.0 | 0.00 | 0.71 | 0.71 | 85 | 1012.4 |
| 20260506201308 | 58 | 83 | 1.0 | 2.0 | 0.00 | 0.71 | 0.71 | 86 | 1012.2 |
| 20260506200805 | 58 | 84 | 2.0 | 4.0 | 0.00 | 0.71 | 0.71 | 86 | 1012.6 |
| 20260506200301 | 57 | 315 | 0.0 | 2.0 | 0.00 | 0.71 | 0.71 | 87 | 1012.4 |
| 20260506195757 | 57 | 315 | 0.0 | 2.0 | 0.00 | 0.71 | 0.71 | 87 | 1012.4 |
| 20260506195254 | 57 | 95 | 1.0 | 2.0 | 0.00 | 0.71 | 0.71 | 88 | 1012.5 |
| 20260506194751 | 57 | 63 | 1.0 | 3.0 | 0.00 | 0.71 | 0.71 | 87 | 1012.2 |
| 20260506194248 | 57 | 343 | 2.0 | 4.0 | 0.00 | 0.71 | 0.71 | 89 | 1012.0 |
| 20260506193746 | 57 | 3 | 2.0 | 2.0 | 0.00 | 0.71 | 0.71 | 89 | 1012.3 |
| 20260506193242 | 57 | 339 | 2.0 | 4.0 | 0.00 | 0.71 | 0.71 | 88 | 1011.9 |
| 20260506192738 | 57 | 69 | 2.0 | 2.0 | 0.00 | 0.71 | 0.71 | 88 | 1012.5 |
| 20260506192235 | 57 | 331 | 1.0 | 2.0 | 0.00 | 0.71 | 0.71 | 89 | 1012.8 |
| 20260506191732 | 57 | 57 | 2.0 | 3.0 | 0.00 | 0.71 | 0.71 | 89 | 1012.5 |
| 20260506191228 | 57 | 95 | 2.0 | 3.0 | 0.00 | 0.71 | 0.71 | 90 | 1012.4 |
| 20260506190726 | 56 | 76 | 0.0 | 3.0 | 0.00 | 0.71 | 0.71 | 90 | 1012.1 |
| 20260506190222 | 56 | 30 | 1.0 | 3.0 | 0.00 | 0.71 | 0.71 | 91 | 1012.3 |
| 20260506185719 | 56 | 85 | 1.0 | 2.0 | 0.00 | 0.71 | 0.71 | 91 | 1012.9 |
| 20260506185215 | 55 | 28 | 1.0 | 2.0 | 0.00 | 0.71 | 0.71 | 91 | 1013.3 |
| 20260506184713 | 55 | 6 | 2.0 | 2.0 | 0.00 | 0.71 | 0.71 | 92 | 1013.3 |
| 20260506184210 | 55 | 308 | 1.0 | 2.0 | 0.00 | 0.71 | 0.71 | 92 | 1013.2 |
| 20260506183707 | 55 | 211 | 0.0 | 2.0 | 0.00 | 0.71 | 0.71 | 91 | 1013.1 |
| 20260506183203 | 55 | 7 | 2.0 | 3.0 | 0.00 | 0.71 | 0.71 | 91 | 1013.3 |
| 20260506182700 | 55 | 31 | 2.0 | 2.0 | 0.00 | 0.71 | 0.71 | 91 | 1012.9 |
| 20260506182157 | 55 | 264 | 2.0 | 2.0 | 0.00 | 0.71 | 0.71 | 91 | 1013.0 |
| 20260506181655 | 55 | 22 | 1.0 | 2.0 | 0.00 | 0.71 | 0.71 | 90 | 1012.9 |
| 20260506181152 | 55 | 54 | 2.0 | 2.0 | 0.00 | 0.71 | 0.71 | 91 | 1013.0 |
| 20260506180649 | 55 | 71 | 1.0 | 2.0 | 0.00 | 0.71 | 0.71 | 90 | 1012.9 |
| 20260506180145 | 55 | 353 | 1.0 | 1.0 | 0.00 | 0.71 | 0.71 | 90 | 1012.7 |
| 20260506175642 | 55 | 338 | 0.0 | 2.0 | 0.00 | 0.71 | 0.71 | 91 | 1012.6 |
| 20260506175139 | 55 | 63 | 2.0 | 3.0 | 0.00 | 0.71 | 0.71 | 91 | 1012.6 |
| 20260506174637 | 55 | 107 | 2.0 | 3.0 | 0.00 | 0.71 | 0.71 | 91 | 1012.5 |
| 20260506174134 | 55 | 55 | 0.0 | 3.0 | 0.00 | 0.71 | 0.71 | 92 | 1012.4 |
| 20260506173631 | 54 | 34 | 2.0 | 2.0 | 0.00 | 0.71 | 0.71 | 92 | 1012.3 |
| 20260506173128 | 54 | 18 | 2.0 | 3.0 | 0.00 | 0.71 | 0.71 | 92 | 1012.1 |
| 20260506172625 | 54 | 64 | 3.0 | 4.0 | 0.00 | 0.71 | 0.71 | 93 | 1012.2 |
| 20260506172121 | 54 | 348 | 3.0 | 4.0 | 0.00 | 0.71 | 0.71 | 93 | 1012.1 |
| 20260506171619 | 55 | 60 | 3.0 | 3.0 | 0.00 | 0.71 | 0.71 | 94 | 1012.3 |
| 20260506171117 | 55 | 24 | 2.0 | 2.0 | 0.00 | 0.71 | 0.71 | 94 | 1012.4 |
| 20260506170615 | 55 | 44 | 0.0 | 3.0 | 0.00 | 0.71 | 0.71 | 94 | 1012.6 |
| 20260506170111 | 54 | 343 | 1.0 | 3.0 | 0.00 | 0.71 | 0.71 | 93 | 1012.3 |
| 20260506165609 | 55 | 22 | 2.0 | 4.0 | 0.00 | 0.71 | 0.71 | 94 | 1012.4 |
| 20260506165105 | 55 | 43 | 4.0 | 4.0 | 0.00 | 0.71 | 0.71 | 94 | 1012.4 |
| 20260506164603 | 54 | 59 | 4.0 | 4.0 | 0.00 | 0.71 | 0.71 | 94 | 1012.3 |
| 20260506164100 | 54 | 23 | 2.0 | 3.0 | 0.00 | 0.71 | 0.71 | 94 | 1012.5 |
| 20260506163555 | 54 | 17 | 2.0 | 3.0 | 0.00 | 0.71 | 0.71 | 93 | 1012.3 |
| 20260506163051 | 54 | 345 | 1.0 | 2.0 | 0.00 | 0.71 | 0.71 | 93 | 1012.4 |
| 20260506162548 | 54 | 330 | 1.0 | 2.0 | 0.00 | 0.71 | 0.71 | 93 | 1012.5 |
| 20260506162045 | 55 | 31 | 0.0 | 2.0 | 0.00 | 0.71 | 0.71 | 93 | 1012.4 |
| 20260506161542 | 55 | 353 | 2.0 | 2.0 | 0.00 | 0.71 | 0.71 | 92 | 1012.4 |
| 20260506161039 | 54 | 41 | 2.0 | 2.0 | 0.00 | 0.71 | 0.71 | 92 | 1012.2 |
| 20260506160537 | 54 | 13 | 1.0 | 2.0 | 0.00 | 0.71 | 0.71 | 94 | 1012.4 |
| 20260506160034 | 54 | 22 | 1.0 | 3.0 | 0.00 | 0.71 | 0.71 | 93 | 1012.4 |
| 20260506155532 | 54 | 6 | 2.0 | 3.0 | 0.00 | 0.71 | 0.71 | 94 | 1012.2 |
| 20260506153703 | 55 | 336 | 1.0 | 3.0 | 0.00 | 0.71 | 0.71 | 94 | 1012.3 |
| 20260506153201 | 54 | 56 | 3.0 | 3.0 | 0.00 | 0.71 | 0.71 | 94 | 1012.3 |
| 20260506152657 | 54 | 16 | 2.0 | 4.0 | 0.00 | 0.71 | 0.71 | 94 | 1012.4 |
| 20260506152155 | 54 | 15 | 1.0 | 4.0 | 0.00 | 0.71 | 0.71 | 94 | 1012.2 |
| 20260506151654 | 54 | 51 | 2.0 | 2.0 | 0.00 | 0.71 | 0.71 | 94 | 1012.2 |
| 20260506151150 | 55 | 29 | 0.0 | 2.0 | 0.00 | 0.71 | 0.71 | 93 | 1012.3 |
| 20260506150647 | 55 | 81 | 0.0 | 2.0 | 0.00 | 0.71 | 0.71 | 94 | 1012.0 |
| 20260506150144 | 54 | 12 | 1.0 | 2.0 | 0.00 | 0.71 | 0.71 | 93 | 1011.9 |
| 20260506145641 | 54 | 16 | 0.0 | 1.0 | 0.00 | 0.71 | 0.71 | 93 | 1012.1 |